Tracking 20242 objects as of 24-Jan-2020
HD Live streaming from Space Station
objects crossing your sky now

FENGYUN 1C DEB

Track FENGYUN 1C DEB now!
10-day predictions


NORAD ID: 32241
Int'l Code: 1999-025CWP
Perigee: 729.8 km
Apogee: 986.6 km
Inclination: 99.0 °
Period: 102.0 minutes
Semi major axis: 7229 km
RCS: 0.0127 m2 (small)
Launch date: May 10, 1999
Source: People's Republic of China (PRC)
Launch site: Taiyaun Space Center, China (TSC)

Note: This is SATELLITE DEBRIS
aabbcc
Your satellite tracking list
Your tracking list is empty




NASA's NSSDC Master Catalog

Two Line Element Set (TLE):
1 32241U 99025CWP 20023.07878782 +.00000217 +00000-0 +12256-3 0  9990
2 32241 099.0067 340.5687 0177567 212.7234 146.2839 14.12433712633522
Source of the keplerian elements: AFSPC